TimeMDT,TemperatureF,Dew PointF,Humidity,Sea Level PressureIn,VisibilityMPH,Wind Direction,Wind SpeedMPH,Gust SpeedMPH,PrecipitationIn,Events,Conditions,WindDirDegrees,DateUTC
12:04 AM,17.6,15.8,93,30.15,2.0,Calm,Calm,-,0.00,Snow,Light Snow,0,2013-03-25 06:04:00
12:53 AM,16.0,12.9,88,30.33,2.0,ESE,3.5,-,0.00,Snow,Light Snow,120,2013-03-25 06:53:00
1:53 AM,16.0,15.1,96,30.33,2.0,Calm,Calm,-,0.00,Snow,Light Snow,0,2013-03-25 07:53:00
2:53 AM,14.0,12.0,92,30.33,2.0,Calm,Calm,-,0.00,Snow,Light Snow,0,2013-03-25 08:53:00
3:04 AM,12.2,10.4,92,30.14,2.0,WSW,3.5,-,0.00,Snow,Light Snow,250,2013-03-25 09:04:00
3:53 AM,7.0,5.0,92,30.36,2.0,Calm,Calm,-,0.00,,Mostly Cloudy,0,2013-03-25 09:53:00
4:31 AM,5.0,3.2,92,30.14,4.0,South,3.5,-,N/A,,Scattered Clouds,180,2013-03-25 10:31:00
4:53 AM,7.0,3.0,84,30.36,4.0,South,8.1,-,N/A,,Scattered Clouds,190,2013-03-25 10:53:00
5:53 AM,6.1,1.9,83,30.39,6.0,ENE,6.9,-,N/A,,Scattered Clouds,60,2013-03-25 11:53:00
6:53 AM,1.9,-0.9,88,30.43,8.0,ESE,4.6,-,N/A,,Scattered Clouds,110,2013-03-25 12:53:00
7:53 AM,3.9,1.9,91,30.43,7.0,ESE,3.5,-,N/A,,Scattered Clouds,120,2013-03-25 13:53:00
8:53 AM,9.0,7.0,92,30.43,7.0,Calm,Calm,-,N/A,,Clear,0,2013-03-25 14:53:00
9:53 AM,16.0,10.0,77,30.40,7.0,Calm,Calm,-,N/A,,Partly Cloudy,0,2013-03-25 15:53:00
10:53 AM,19.0,10.9,71,30.41,10.0,ESE,4.6,-,N/A,,Partly Cloudy,120,2013-03-25 16:53:00
11:53 AM,23.0,8.1,53,30.40,10.0,Calm,Calm,-,N/A,,Partly Cloudy,0,2013-03-25 17:53:00
12:53 PM,25.0,7.0,46,30.38,10.0,East,4.6,-,N/A,,Partly Cloudy,100,2013-03-25 18:53:00
1:53 PM,26.1,7.0,44,30.36,10.0,East,6.9,-,N/A,,Partly Cloudy,90,2013-03-25 19:53:00
2:53 PM,27.0,8.1,45,30.35,10.0,ESE,6.9,-,N/A,,Partly Cloudy,110,2013-03-25 20:53:00
3:53 PM,28.0,8.1,43,30.37,10.0,East,5.8,-,N/A,,Partly Cloudy,100,2013-03-25 21:53:00
4:53 PM,28.9,1.9,32,30.36,10.0,ESE,4.6,-,N/A,,Partly Cloudy,110,2013-03-25 22:53:00
5:53 PM,28.0,1.9,33,30.37,10.0,SE,3.5,-,N/A,,Clear,130,2013-03-25 23:53:00
6:53 PM,26.1,6.1,43,30.40,10.0,ESE,6.9,-,N/A,,Scattered Clouds,120,2013-03-26 00:53:00
7:53 PM,25.0,1.9,37,30.40,10.0,SSE,6.9,-,N/A,,Partly Cloudy,150,2013-03-26 01:53:00
8:53 PM,21.0,5.0,50,30.41,10.0,South,9.2,-,N/A,,Clear,180,2013-03-26 02:53:00
9:53 PM,19.9,3.9,50,30.38,10.0,South,8.1,-,N/A,,Clear,170,2013-03-26 03:53:00
10:53 PM,19.9,9.0,62,30.36,10.0,SSE,12.7,-,N/A,,Clear,150,2013-03-26 04:53:00
11:53 PM,19.9,10.9,68,30.31,10.0,SSE,9.2,-,N/A,,Clear,160,2013-03-26 05:53:00